Estación Meteorológica Peña el Pijo (Robertgarden) [ 07/15/20 07:05:56 CEST ]

Fecha Hora Presion(HPa) Temp (°C) Humedad % Rocio (°C) Viento ( m/s) Direccion Lluvia 1Hora(mm) Lluvia 24H(mm) LLuvia Total(mm)
2020-Jan-13 01:01:36 1016.500 -2.5 73 -6.7         39.88
2020-Jan-13 02:04:18 1015.600 -2.4 75 -6.2         39.88
2020-Jan-13 03:01:46 1015.100 -3.2 76 -6.9         39.88
2020-Jan-13 04:01:57 1014.700 -3.6 77 -7.1         39.88
2020-Jan-13 05:01:50 1014.300 -3.9 77 -7.3         39.88
2020-Jan-13 06:01:16 1013.700 -4.2 78 -7.5         39.88
2020-Jan-13 07:09:02 1013.800 - - - - NNE     39.88
2020-Jan-13 08:08:55 1014.100 - - - - NNE     39.88
2020-Jan-13 09:01:51 1013.800 -4.7 75 -8.5         39.88
2020-Jan-13 10:08:56 1013.600 - - - - NNE     39.88
2020-Jan-13 11:01:44 1013.400 7.6 52 -1.7         39.88
2020-Jan-13 12:01:50 1013.300 11.3 35 -3.7         39.88
2020-Jan-13 13:01:35 1012.400 14.9 28 -3.6         39.88
2020-Jan-13 14:01:35 1011.400 15.6 26 -4.1         39.88
2020-Jan-13 15:09:36 1010.800 - - - - NNE     39.88
2020-Jan-13 16:09:37 1010.800 - - - - NNE     39.88
2020-Jan-13 17:09:26 1010.500 - - - - NNE     39.88
2020-Jan-13 18:09:39 1011.000 - - - - NNE     39.88
2020-Jan-13 19:01:55 1011.500 6.7 42 -5.4         39.88
2020-Jan-13 20:09:30 1011.900 - - - - N     39.88
2020-Jan-13 21:09:14 1011.900 - - - - N     39.88
2020-Jan-13 22:09:20 1011.300 - - - - N     39.88
2020-Jan-13 23:09:09 1011.300 - - - - N     39.88

Temperatura Máxima:15°    Temperatura Mínima:-4°
Presión Máxima:1016.500 Hpa    Presión Mínima:1010.500 Hpa


Volver